Weather History for Galveston, TX

Change the Weather History Date:

Saturday, March 15, 2014

  Actual Average Record
Temperature  
Mean Temperature 65 °F 63 °F  
Max Temperature 66 °F 70 °F 87 °F (2008)
Min Temperature 63 °F 56 °F 40 °F (1937)
Degree Days  
Heating Degree Days 0 3  
Month to date heating degree days 129 66  
Since 1 July heating degree days 1368 954  
Cooling Degree Days 0 1  
Month to date cooling degree days 3 15  
Year to date cooling degree days 10 32  
Growing Degree Days 14 (Base 50)    
Moisture  
Dew Point 64 °F    
Average Humidity 97    
Maximum Humidity 100    
Minimum Humidity 93    
Precipitation  
Precipitation 0.15 in 0.13 in 1.88 in (1896)
Month to date precipitation 1.56 1.72  
Year to date precipitation 4.61 8.49  
Snow  
Snow 0.00 in - - ()
Month to date snowfall 0.0  
Since 1 July snowfall T  
Snow Depth 0.00 in    
Sea Level Pressure  
Sea Level Pressure 29.87 in    
Wind  
Wind Speed 12 mph (SE)    
Max Wind Speed 18 mph    
Max Gust Speed 23 mph    
Visibility 5 miles    
Events Rain , Thunderstorm    
T = Trace of Precipitation, MM = Missing Value Source: NWS Daily Summary

Daily Weather History Graph

Daily Weather History Graph

Search for Another Location

Airport:

Trip Planner

Search our weather history database for the weather conditions in past years. The results will help you decide how hot, cold, wet, or windy it might be!

Date:

Astronomy

Mar. 15, 2014 Rise Set
Actual Time 7:29 AM CDT 7:27 PM CDT
Civil Twilight 7:05 AM CDT 7:51 PM CDT
Nautical Twilight 6:37 AM CDT 8:19 PM CDT
Astronomical Twilight 6:10 AM CDT 8:46 PM CDT
Moon 6:48 PM CDT (3/15) 6:38 AM CDT (3/15)
Length of Visible Light 12h 46m
Length of Day
11h 58m
Waxing Gibbous, 99% of the Moon is Illuminated
Mar 15
Waxing Gibbous
Mar 16
Full
Mar 23
Last Quarter
Mar 30
New
Apr 7
First Quarter

Hourly Weather History & Observations

Time (CDT) Temp. Dew Point Humidity Pressure Visibility Wind Dir Wind Speed Gust Speed Precip Events Conditions
12:52 AM 64.0 °F 63.0 °F 96% 30.03 in 10.0 mi SE 10.4 mph - N/A   Overcast
1:52 AM 64.0 °F 63.0 °F 96% 30.02 in 10.0 mi ESE 9.2 mph - N/A   Overcast
2:52 AM 64.0 °F 63.0 °F 96% 30.00 in 10.0 mi East 9.2 mph - 0.00 in   Overcast
3:52 AM 63.0 °F 63.0 °F 100% 29.98 in 9.0 mi East 10.4 mph - 0.00 in Rain Light Rain
4:52 AM 64.0 °F 63.0 °F 96% 29.97 in 10.0 mi ESE 10.4 mph - 0.00 in   Overcast
5:52 AM 64.0 °F 63.0 °F 96% 29.96 in 10.0 mi ESE 10.4 mph - N/A   Overcast
6:52 AM 64.0 °F 63.0 °F 96% 29.96 in 9.0 mi ESE 11.5 mph - N/A   Overcast
7:52 AM 64.0 °F 64.0 °F 100% 29.96 in 6.0 mi ESE 11.5 mph - 0.00 in   Overcast
8:52 AM 64.0 °F 64.0 °F 100% 29.97 in 6.0 mi ESE 11.5 mph - N/A   Overcast
9:52 AM 64.9 °F 64.0 °F 97% 29.97 in 10.0 mi ESE 15.0 mph - N/A   Overcast
10:52 AM 64.9 °F 64.0 °F 97% 29.96 in 6.0 mi ESE 13.8 mph - 0.00 in   Overcast
11:52 AM 64.9 °F 64.0 °F 97% 29.94 in 6.0 mi ESE 13.8 mph - 0.00 in Rain Light Rain
12:52 PM 64.9 °F 64.0 °F 97% 29.93 in 10.0 mi ESE 12.7 mph - 0.00 in   Overcast
12:54 PM 64.9 °F 64.0 °F 97% 29.92 in 5.0 mi SE 11.5 mph - N/A   Overcast
1:06 PM 64.9 °F 64.0 °F 97% 29.92 in 2.0 mi ESE 13.8 mph - 0.00 in Rain Light Rain
1:18 PM 64.0 °F 64.0 °F 100% 29.92 in 2.0 mi ESE 15.0 mph - 0.04 in Rain , Thunderstorm Heavy Rain
1:40 PM 64.9 °F 64.9 °F 100% 29.90 in 2.0 mi ESE 12.7 mph - 0.06 in Rain Light Rain
1:52 PM 64.0 °F 64.0 °F 100% 29.90 in 2.0 mi ESE 12.7 mph - 0.09 in Rain Heavy Rain
1:59 PM 64.0 °F 64.0 °F 100% 29.89 in 2.0 mi ESE 11.5 mph - 0.03 in Rain Rain
2:10 PM 64.0 °F 64.0 °F 100% 29.88 in 3.0 mi East 11.5 mph - 0.04 in Rain Light Rain
2:36 PM 64.0 °F 64.0 °F 100% 29.86 in 4.0 mi East 13.8 mph - 0.04 in Rain Light Rain
2:43 PM 64.9 °F 64.9 °F 100% 29.85 in 6.0 mi East 12.7 mph - 0.04 in Rain Light Rain
2:52 PM 64.9 °F 64.9 °F 100% 29.85 in 7.0 mi East 13.8 mph - 0.05 in Rain Light Rain
2:53 PM 64.9 °F 64.9 °F 100% 29.85 in 8.0 mi East 12.7 mph - 0.00 in Rain Light Rain
2:54 PM 64.9 °F 64.9 °F 100% 29.85 in 6.0 mi East 12.7 mph - 0.00 in Rain Light Rain
3:12 PM 64.9 °F 64.9 °F 100% 29.84 in 6.0 mi East 11.5 mph - 0.00 in   Overcast
3:39 PM 64.9 °F 64.9 °F 100% 29.81 in 2.0 mi East 12.7 mph - 0.00 in   Overcast
3:52 PM 64.9 °F 64.9 °F 100% 29.81 in 2.0 mi East 12.7 mph - 0.00 in   Overcast
4:52 PM 64.0 °F 64.0 °F 100% 29.79 in 2.0 mi ESE 13.8 mph - N/A   Overcast
5:52 PM 64.0 °F 64.0 °F 100% 29.77 in 2.0 mi ESE 12.7 mph - 0.00 in   Overcast
6:52 PM 63.0 °F 63.0 °F 100% 29.76 in 2.0 mi SE 12.7 mph - 0.00 in   Overcast
6:59 PM 63.0 °F 63.0 °F 100% 29.75 in 0.8 mi SE 15.0 mph - N/A   Overcast
7:34 PM 64.0 °F 64.0 °F 100% 29.75 in 1.5 mi SE 11.5 mph - N/A   Overcast
7:52 PM 63.0 °F 63.0 °F 100% 29.75 in 1.2 mi SE 13.8 mph - N/A   Overcast
8:18 PM 64.0 °F 64.0 °F 100% 29.76 in 2.5 mi SSE 13.8 mph - 0.01 in Rain Light Rain
8:52 PM 64.0 °F 64.0 °F 100% 29.76 in 3.0 mi SSE 12.7 mph - 0.01 in   Overcast
9:22 PM 64.0 °F 64.0 °F 100% 29.77 in 4.0 mi South 13.8 mph - 0.00 in   Overcast
9:52 PM 64.9 °F 64.9 °F 100% 29.78 in 6.0 mi South 12.7 mph - 0.00 in   Overcast
10:10 PM 66.0 °F 66.0 °F 100% 29.77 in 4.0 mi South 17.3 mph - N/A   Overcast
10:18 PM 66.0 °F 66.0 °F 100% 29.78 in 1.8 mi South 16.1 mph - N/A   Overcast
10:36 PM 66.0 °F 66.0 °F 100% 29.78 in 0.8 mi South 16.1 mph - N/A   Mist
10:52 PM 64.9 °F 64.9 °F 100% 29.77 in 0.8 mi South 15.0 mph - N/A   Mist
11:52 PM 64.9 °F 64.9 °F 100% 29.76 in 0.8 mi South 15.0 mph - N/A   Mist